Powrót do katalogu

STARLINK-6091

AktywnyŁącznośćVLEO
NORAD 56119·PAYLOAD·🇺🇸 United States

Wystrzelony Mar 29, 2023 z Cape Canaveral Space Force Station

Loading…

Następne Przeloty (najbliższe 24 godziny)

TLE

ŚwieżeSource: CelesTrak SupGP

Epoka: Sep 15, 2026, 03:10 UTC

1 56119C 23046AC  26258.13243056  .00051790  00000+0  18761-2 0  2588
2 56119  43.0017 157.4321 0000824 249.9570 314.5121 15.27549476    10

Śledź STARLINK-6091 w czasie rzeczywistym z AllMySat

Download on the App Store